Tracking 29892 objects as of 21-Nov-2024
HD Live streaming from Space Station
objects crossing your sky now

CZ-6A DEB

Track CZ-6A DEB now!
10-day predictions


NORAD ID: 55556
Int'l Code: 2022-151ZE
Perigee: 648.3 km
Apogee: 784.7 km
Inclination: 98.7 °
Period: 99.0 minutes
Semi major axis: 7087 km
RCS: Unknown
Launch date: November 11, 2022
Source: People's Republic of China (PRC)
Launch site: Taiyaun Space Center, China (TSC)

Note: This is SATELLITE DEBRIS
Your satellite tracking list
Your tracking list is empty




NASA's NSSDC Master Catalog

Two Line Element Set (TLE):
1 55556U 22151ZE  24325.54214973  .00019112  00000-0  41717-2 0  9994
2 55556  98.6669 354.8293 0096213 253.4582 105.6028 14.55004670106399
Source of the keplerian elements: AFSPC